Home   Weather   Yokosuka   Past weeks
Flag for Japan

Past Weather in Yokosuka, Japan — Yesterday and Last 2 Weeks

Now
73 °F

Passing clouds.


Feels Like: 68 °F
Forecast: 80 / 75 °F
Wind: 14 mph from Northeast

Location: Tokyo International Airport

Current Time: Jul 21, 2019 at 9:59:24 pm

Latest Report: Jul 21, 2019 at 9:30 pm


Visibility: 4 mi

Pressure: 29.95 "Hg

Humidity: 100%

Dew Point: 73 °F

Location of YokosukaLocation

Past Weather in Yokosuka — Graph

°F

Yokosuka Temperature Yesterday

Maximum temperature yesterday: 81 °F (at 11:00 am)
Minimum temperature yesterday: 75 °F (at 1:30 am)
Average temperature yesterday: 78 °F

High & Low Weather Summary for the Past Weeks

 TemperatureHumidityPressure
High88 °F (Jul 18, 1:00 pm)100% (Jul 7, 2:00 am)30.01 "Hg (Jul 7, 2:00 am)
Low66 °F (Jul 7, 8:00 pm)62% (Jul 19, 1:00 pm)29.53 "Hg (Jul 14, 10:42 am)
Average72 °F89%29.81 "Hg
* Reported Jul 6 8:00 pm — Jul 21 8:46 pm, Yokosuka. Weather by CustomWeather, © 2019

Note: Actual official high and low records may vary slightly from our data, if they occured in-between our weather recording intervals... More about our weather records

Advertising

Yokosuka Weather History for the Previous 24 Hours

Scroll right to see more
 ConditionsComfort  
Time TempWeatherWind HumidityBarometerVisibility
8:46 pm
Sun, Jul 21
75 °FPassing clouds.14 mph94%29.95 "Hg4 mi
8:30 pm75 °FPassing clouds.16 mph94%29.95 "Hg4 mi
8:00 pm75 °FPassing clouds.14 mph94%29.95 "Hg4 mi
7:30 pm75 °FPassing clouds.14 mph94%29.92 "Hg6 mi
7:00 pm77 °FPassing clouds.10 mph89%29.95 "HgN/A
6:30 pm77 °FBroken clouds.13 mph94%29.92 "HgN/A
6:12 pm79 °FBroken clouds.14 mph89%29.92 "HgN/A
6:00 pm79 °FPartly sunny.15 mph89%29.92 "HgN/A
5:30 pm79 °FPartly sunny.14 mph89%29.92 "HgN/A
5:00 pm79 °FPartly sunny.13 mph89%29.92 "HgN/A
4:30 pm79 °FPartly sunny.10 mph94%29.92 "HgN/A
4:00 pm81 °FBroken clouds.8 mph89%29.92 "HgN/A
3:30 pm81 °FPartly sunny.12 mph89%29.92 "HgN/A
3:00 pm81 °FBroken clouds.8 mph89%29.92 "HgN/A
2:30 pm81 °FPartly sunny.8 mph89%29.92 "HgN/A
2:00 pm81 °FPartly sunny.7 mph89%29.92 "HgN/A
1:30 pm81 °FPartly sunny.8 mph89%29.95 "HgN/A
1:16 pm81 °FBroken clouds.8 mph89%29.95 "HgN/A
1:00 pm79 °FPartly sunny.8 mph94%29.95 "HgN/A
12:30 pm79 °FPartly sunny.8 mph94%29.95 "HgN/A
12:00 pm77 °FPartly sunny.6 mph94%29.98 "HgN/A
11:30 am77 °FPartly sunny.7 mph94%29.98 "Hg6 mi
11:00 am79 °FPartly sunny.10 mph89%29.95 "Hg4 mi
10:30 am77 °FScattered showers. Fog.8 mph94%29.98 "Hg2 mi
10:00 am77 °FScattered showers. Fog.8 mph94%29.98 "Hg3 mi
9:30 am77 °FFog.7 mph94%29.98 "Hg3 mi
9:00 am77 °FPartly sunny.6 mph94%29.98 "Hg4 mi
8:30 am77 °FFog.5 mph94%29.98 "Hg4 mi
8:00 am77 °FBroken clouds.3 mph94%29.98 "Hg4 mi
7:30 am77 °FBroken clouds.5 mph94%29.98 "Hg4 mi
7:00 am77 °FBroken clouds.3 mph94%29.98 "Hg4 mi
6:30 am77 °FBroken clouds.5 mph94%29.98 "Hg4 mi
6:00 am77 °FPartly sunny.3 mph94%29.95 "Hg6 mi
5:30 am75 °FPartly sunny.7 mph100%29.95 "Hg4 mi
5:00 am75 °FSprinkles. Partly sunny.3 mph100%29.95 "Hg4 mi
4:30 am75 °FSprinkles. Partly cloudy.3 mph100%29.95 "Hg4 mi
4:00 am75 °FSprinkles. Passing clouds.3 mph100%29.95 "Hg4 mi
3:30 am75 °FSprinkles. Partly cloudy.5 mph100%29.95 "Hg6 mi
3:00 am75 °FSprinkles. Passing clouds.2 mph100%29.98 "HgN/A
2:30 am75 °FSprinkles. Partly cloudy.2 mph100%29.98 "HgN/A
2:00 am75 °FPartly cloudy.2 mph100%29.95 "HgN/A
1:30 am75 °FPartly cloudy.3 mph100%29.95 "HgN/A
1:00 am77 °FScattered showers. Partly cloudy.2 mph94%29.98 "HgN/A
12:30 am77 °FScattered showers. Partly cloudy.2 mph94%29.98 "HgN/A
12:00 am77 °FPartly cloudy.3 mph94%29.98 "HgN/A
11:30 pm
Sat, Jul 20
77 °FPartly cloudy.5 mph94%29.98 "HgN/A
11:00 pm77 °FPartly cloudy.2 mph94%29.98 "HgN/A
10:30 pm77 °FSprinkles. Partly cloudy.5 mph94%29.98 "HgN/A
10:00 pm77 °FSprinkles. Partly cloudy.5 mph94%30.01 "HgN/A
9:30 pm77 °FSprinkles. Passing clouds.3 mph94%29.98 "HgN/A
9:00 pm77 °FScattered showers. Passing clouds.3 mph94%29.98 "HgN/A
Weather by CustomWeather, © 2019

See weather overview